Regional Weather Roundup
Issued by NWS

Home | Current Version | Previous Version | Graphics & Text | Print | Product List | Glossary On
Versions: 1 2 3 4 5 6 7 8 9 10 11 12 13 14 15 16 17 18 19 20 21 22 23 24 25 26 27 28 29 30 31 32 33 34 35 36 37 38 39 40 41 42 43 44 45 46 47 48 49 50
000
ASUS45 KPSR 301200
RWRAZ

ARIZONA HOURLY REGIONAL WEATHER ROUNDUP
NATIONAL WEATHER SERVICE PHOENIX AZ
500 AM MST THU JUL 30 2015

NOTE: FAIR INDICATES FEW OR NO CLOUDS BELOW 12,000 FEET WITH NO
SIGNIFICANT WEATHER AND/OR OBSTRUCTIONS TO VISIBILITY.

AZZ001>003-036-301300-
NORTHWEST ARIZONA

CITY           SKY/WX    TMP DP  RH WIND       PRES   REMARKS
KINGMAN        CLOUDY    76  57  51 SE8       30.13R
6HR MIN TEMP:  76; 6HR MAX TEMP:  85;

$$

AZZ004>008-015-016-018-301300-
NORTH CENTRAL ARIZONA

CITY           SKY/WX    TMP DP  RH WIND       PRES   REMARKS
GRAND CANYON   MOCLDY    55  46  71 E3        30.39R
6HR MIN TEMP:  55; 6HR MAX TEMP:  71;

WILLIAMS       MOCLDY    59  50  72 SE6       30.45R
PRESCOTT       CLOUDY    68  57  68 NW3       30.25S
6HR MIN TEMP:  68; 6HR MAX TEMP:  74;

FLAGSTAFF      NOT AVBL
PAYSON         CLOUDY    66  59  77 NE5       30.29R
PAGE           PTCLDY    72  55  55 S6        30.22R
6HR MIN TEMP:  72; 6HR MAX TEMP:  82;

$$

AZZ009>014-017-301300-
NORTHEAST ARIZONA

CITY           SKY/WX    TMP DP  RH WIND       PRES   REMARKS
WINSLOW        NOT AVBL
SAINT JOHNS    CLOUDY    62  59  90 NE9       30.30R
6HR MIN TEMP:  62; 6HR MAX TEMP:  66;

SHOW LOW       MOCLDY    55  55 100 W5        30.35S
$$

AZZ023-301300-
GREATER PHOENIX AREA

CITY           SKY/WX    TMP DP  RH WIND       PRES   REMARKS
PHOENIX        CLOUDY    86  63  45 NE9       29.96R
6HR MIN TEMP:  85; 6HR MAX TEMP:  89;

DEER VALLEY    MOCLDY    83  62  49 CALM      29.99S
6HR MIN TEMP:  82; 6HR MAX TEMP:  87;

SCOTTSDALE     MOCLDY    83  63  50 CALM      30.00S
6HR MIN TEMP:  83; 6HR MAX TEMP:  88;

MESA-GATEWAY   MOCLDY    81  63  54 SE5       30.01R
$$

AZZ027-028-301300-
SOUTHWEST MARICOPA COUNTY AND PINAL COUNTY

CITY           SKY/WX    TMP DP  RH WIND       PRES   REMARKS
CASA GRANDE    MOCLDY    81  64  57 NE9       29.99R
6HR MIN TEMP:  81; 6HR MAX TEMP:  84;

$$

AZZ503-504-507>509-301300-
SOUTHEAST ARIZONA

CITY           SKY/WX    TMP DP  RH WIND       PRES   REMARKS
TUCSON         CLEAR     74  63  68 E10       30.08R
6HR MIN TEMP:  74; 6HR MAX TEMP:  78;

NOGALES        PTCLDY    65  61  87 E6        30.16R
6HR MIN TEMP:  65; 6HR MAX TEMP:  70;

SAFFORD        CLOUDY    72  65  78 E7        30.15R
6HR MIN TEMP:  72; 6HR MAX TEMP:  75;

$$

AZZ020-021-025-026-031-301300-
SOUTHWEST ARIZONA

CITY           SKY/WX    TMP DP  RH WIND       PRES   REMARKS
YUMA           NOT AVBL
$$

CAZ031-033-041-043-047-048-061-301300-
SOUTHERN CALIFORNIA

CITY           SKY/WX    TMP DP  RH WIND       PRES   REMARKS
DOWNTOWN L.A.  CLEAR     68  62  81 CALM      29.96S
6HR MIN TEMP:  68; 6HR MAX TEMP:  69;

L.A. AIRPORT   PTCLDY    68  64  87 W7        29.97S
6HR MIN TEMP:  67; 6HR MAX TEMP:  69;

SAN DIEGO      MOCLDY    71  64  78 N5        29.97S
6HR MIN TEMP:  71; 6HR MAX TEMP:  71;

BURBANK        CLEAR     72  62  71 CALM      29.97S
6HR MIN TEMP:  71; 6HR MAX TEMP:  73;

ONTARIO        MOCLDY    71  62  73 CALM      29.98S
6HR MIN TEMP:  71; 6HR MAX TEMP:  73;

RIVERSIDE      CLEAR     72  63  73 CALM      29.98S
6HR MIN TEMP:  71; 6HR MAX TEMP:  73;

PALM SPRINGS   CLOUDY    90  64  42 NW5       29.92R
6HR MIN TEMP:  90; 6HR MAX TEMP:  96; 6HR PCP: TRACE;

EL CENTRO NAS  CLEAR     82  66  58 N5        29.87S
6HR MIN TEMP:  82; 6HR MAX TEMP:  91;

IMPERIAL       CLEAR     85  70  60 CALM      29.85S
6HR MIN TEMP:  85; 6HR MAX TEMP:  93;

BLYTHE         MOCLDY    92  59  33 S10       29.88R
6HR MIN TEMP:  90; 6HR MAX TEMP:  97;

$$

NVZ020-UTZ003-301300-
SOUTHERN NEVADA-UTAH

CITY           SKY/WX    TMP DP  RH WIND       PRES   REMARKS
LAS VEGAS      NOT AVBL
SALT LAKE CITY CLEAR     62  38  40 S5        30.25S
6HR MIN TEMP:  61; 6HR MAX TEMP:  69;

$$

NMZ009-TXZ055-301300-
NEW MEXICO-WEST TEXAS

CITY           SKY/WX    TMP DP  RH WIND       PRES   REMARKS
ALBUQUERQUE    CLOUDY    66  59  78 NE7       30.35S
6HR MIN TEMP:  66; 6HR MAX TEMP:  69; 6HR PCP: TRACE;

EL PASO        LGT RAIN  69  65  86 NE12      30.25R
6HR MIN TEMP:  68; 6HR MAX TEMP:  76; 6HR PCP:  0.65;

$$


........................KEY........................
SKY/WX - SKY CONDITION/WEATHER
TMP    - TEMPERATURE IN FAHRENHEIT
DP     - DEW POINT IN FAHRENHEIT
RH     - RELATIVE HUMIDITY IN PERCENT
WIND   - DIRECTION AND SPEED IN MILES PER HOUR (MPH)
VRB    - VARIABLE WIND DIRECTION
PRES   - MEAN SEA LEVEL PRESSURE IN INCHES OF MERCURY
         F - FALLING PRESSURE   R - RISING PRESSURE
         S - STEADY PRESSURE
VSB    - VISIBILITY IN MILES
HX     - HEAT INDEX IN FAHRENHEIT
WCI    - WIND CHILL INDEX IN FAHRENHEIT
TC     - TEMPERATURE IN CELSIUS WHICH IS ALSO KNOWN AS
         TEMPERATURE IN CENTIGRADE
AFB    - AIR FORCE BASE
         LUKE AFB IS LUKE AIR FORCE BASE
         DAVIS-MONTHAN IS DAVIS-MONTHAN AIR FORCE BASE
NAS    - NAVAL AIR STATION
         EL CENTRO NAS IS EL CENTRO NAVAL AIR STATION
N/A    - NOT AVAILABLE



USA.gov is the U.S. government's official web portal to all federal, state and local government web resources and services.